Wayne, NE

3:18 AM CDT on April 27, 2017 (GMT -0500)
Wayne Municipal

Weather History for KLCG - April, 2013

Change the Weather History Date:

Thursday, April 4, 2013

  Actual Average (KOFK) Record (KOFK)
Temperature  
Mean Temperature 48 °F -  
Max Temperature 61 °F 54 °F 92 °F (1929)
Min Temperature 35 °F 31 °F 5 °F (1936)
Degree Days  
Heating Degree Days 17    
Moisture  
Dew Point 25 °F    
Average Humidity 49    
Maximum Humidity 78    
Minimum Humidity 13    
Precipitation  
Precipitation 0.00 in - - ()
Sea Level Pressure  
Sea Level Pressure 30.11 in    
Wind  
Wind Speed 10 mph (NNW)    
Max Wind Speed 17 mph    
Max Gust Speed 24 mph    
Visibility 10 miles    
Events      
Averages and records for this station are not official NWS values.
T = Trace of Precipitation, MM = Missing Value Source: NWS Daily Summary

Daily Weather History Graph

Daily Weather History Graph

Search for Another Location

Airport or City:

Trip Planner

Search our weather history database for the weather conditions in past years. The results will help you decide how hot, cold, wet, or windy it might be!

Date:

Astronomy

Apr. 04, 2013 Rise Set
Actual Time 7:04 AM CDT 7:57 PM CDT
Civil Twilight 6:36 AM CDT 8:25 PM CDT
Nautical Twilight 6:02 AM CDT 8:59 PM CDT
Astronomical Twilight 5:27 AM CDT 9:35 PM CDT
Moon 3:38 AM CDT (4/4) 2:11 PM CDT (4/4)
Length of Visible Light 13h 49m
Length of Day
12h 52m
Waning Crescent, 33% of the Moon is Illuminated
Apr 4
Waning Crescent
Apr 10
New
Apr 18
First Quarter
Apr 25
Full
May 2
Last Quarter

Hourly Weather History & Observations

Time (CDT) Temp. Windchill Dew Point Humidity Pressure Visibility Wind Dir Wind Speed Gust Speed Precip Events Conditions
12:15 AM 41.0 °F 33.9 °F 24.6 °F 52% 30.14 in 10.0 mi SSW 12.7 mph - N/A   Clear
12:35 AM 41.2 °F 34.5 °F 24.3 °F 51% 30.14 in 10.0 mi SSW 11.5 mph - N/A   Clear
12:55 AM 39.6 °F 32.5 °F 24.3 °F 54% 30.13 in 10.0 mi SSW 11.5 mph - N/A   Clear
1:15 AM 39.2 °F 33.0 °F 24.3 °F 55% 30.14 in 10.0 mi SW 9.2 mph - N/A   Clear
1:35 AM 38.5 °F 34.1 °F 24.4 °F 57% 30.14 in 10.0 mi SSW 5.8 mph - N/A   Clear
1:55 AM 38.7 °F 32.4 °F 24.4 °F 57% 30.14 in 10.0 mi SW 9.2 mph - N/A   Clear
2:15 AM 38.3 °F 31.9 °F 24.6 °F 58% 30.15 in 10.0 mi SW 9.2 mph - N/A   Clear
2:35 AM 37.4 °F 30.3 °F 25.2 °F 61% 30.13 in 10.0 mi SSW 10.4 mph - N/A   Clear
2:55 AM 37.2 °F 31.9 °F 26.1 °F 64% 30.13 in 10.0 mi SW 6.9 mph - N/A   Clear
3:15 AM 36.0 °F 31.1 °F 26.2 °F 68% 30.12 in 10.0 mi SW 5.8 mph - N/A   Clear
3:35 AM 36.5 °F 31.0 °F 27.3 °F 69% 30.12 in 10.0 mi SSW 6.9 mph - N/A   Clear
3:55 AM 37.8 °F 33.3 °F 28.2 °F 68% 30.12 in 10.0 mi SW 5.8 mph - N/A   Clear
4:15 AM 37.2 °F 33.6 °F 28.4 °F 70% 30.12 in 10.0 mi SSW 4.6 mph - N/A   Clear
4:35 AM 37.0 °F 31.6 °F 28.6 °F 71% 30.12 in 10.0 mi SW 6.9 mph - N/A   Clear
4:55 AM 38.1 °F 32.9 °F 29.3 °F 71% 30.11 in 10.0 mi SSW 6.9 mph - N/A   Clear
5:15 AM 36.5 °F 31.0 °F 29.1 °F 75% 30.10 in 10.0 mi SSW 6.9 mph - N/A   Clear
5:35 AM 36.7 °F 29.9 °F 29.3 °F 75% 30.10 in 10.0 mi SSW 9.2 mph - N/A   Clear
5:55 AM 37.6 °F 30.0 °F 29.3 °F 72% 30.10 in 10.0 mi SW 11.5 mph - N/A   Clear
6:15 AM 35.8 °F 28.8 °F 28.8 °F 76% 30.09 in 10.0 mi SSW 9.2 mph - N/A   Clear
6:35 AM 35.4 °F 29.7 °F 29.3 °F 78% 30.09 in 10.0 mi SSW 6.9 mph - N/A   Clear
6:55 AM 36.5 °F 30.3 °F 29.8 °F 77% 30.09 in 10.0 mi SW 8.1 mph - N/A   Clear
7:15 AM 37.0 °F 29.8 °F 29.8 °F 75% 30.09 in 10.0 mi SW 10.4 mph - N/A   Clear
7:35 AM 37.4 °F 29.8 °F 30.0 °F 75% 30.09 in 10.0 mi SW 11.5 mph - N/A   Clear
7:55 AM 38.3 °F 33.2 °F 30.2 °F 73% 30.09 in 10.0 mi SW 6.9 mph - N/A   Clear
8:15 AM 39.7 °F 34.3 °F 30.9 °F 71% 30.10 in 10.0 mi WSW 8.1 mph - N/A   Clear
8:35 AM 42.3 °F 36.3 °F 31.1 °F 65% 30.09 in 10.0 mi West 10.4 mph - N/A   Mostly Cloudy
8:55 AM 41.9 °F 36.3 °F 30.9 °F 65% 30.11 in 10.0 mi West 9.2 mph - N/A   Mostly Cloudy
9:15 AM 42.1 °F 36.1 °F 31.5 °F 66% 30.10 in 10.0 mi WNW 10.4 mph - N/A   Mostly Cloudy
9:35 AM 42.6 °F 37.2 °F 31.6 °F 65% 30.10 in 10.0 mi WNW 9.2 mph - N/A   Mostly Cloudy
9:55 AM 44.2 °F 40.3 °F 32.2 °F 63% 30.09 in 10.0 mi WNW 6.9 mph - N/A   Mostly Cloudy
10:15 AM 46.2 °F 39.8 °F 33.4 °F 61% 30.10 in 10.0 mi NW 15.0 mph 20.7 mph N/A   Mostly Cloudy
10:35 AM 43.5 °F 38.3 °F 32.2 °F 64% 30.11 in 10.0 mi NNW 9.2 mph - N/A   Scattered Clouds
10:55 AM 45.9 °F 40.8 °F 32.0 °F 58% 30.12 in 10.0 mi NW 10.4 mph 16.1 mph N/A   Clear
11:35 AM 48.9 °F - 32.5 °F 53% 30.12 in 10.0 mi North 12.7 mph 18.4 mph N/A   Clear
11:55 AM 50.9 °F - 32.9 °F 50% 30.13 in 10.0 mi North 11.5 mph 18.4 mph N/A   Clear
12:15 PM 52.2 °F - 33.3 °F 49% 30.13 in 10.0 mi North 13.8 mph 21.9 mph N/A   Clear
12:35 PM 54.7 °F - 33.1 °F 44% 30.12 in 10.0 mi North 17.3 mph - N/A   Clear
12:55 PM 55.4 °F - 31.6 °F 40% 30.12 in 10.0 mi NNE 16.1 mph 24.2 mph N/A   Clear
1:15 PM 56.5 °F - 31.5 °F 39% 30.12 in 10.0 mi North 12.7 mph 20.7 mph N/A   Clear
1:35 PM 58.1 °F - 29.7 °F 34% 30.10 in 10.0 mi North 12.7 mph 21.9 mph N/A   Clear
1:55 PM 58.1 °F - 27.3 °F 31% 30.11 in 10.0 mi North 16.1 mph 21.9 mph N/A   Clear
2:15 PM 58.6 °F - 23.2 °F 26% 30.11 in 10.0 mi NNE 17.3 mph 20.7 mph N/A   Clear
2:35 PM 58.1 °F - 23.4 °F 26% 30.10 in 10.0 mi NNE 12.7 mph 18.4 mph N/A   Clear
2:55 PM 59.0 °F - 22.6 °F 25% 30.10 in 10.0 mi NNE 16.1 mph 19.6 mph N/A   Clear
3:15 PM 59.5 °F - 20.7 °F 22% 30.09 in 10.0 mi NNE 12.7 mph 17.3 mph N/A   Clear
3:35 PM 60.4 °F - 18.3 °F 20% 30.08 in 10.0 mi NNE 16.1 mph 21.9 mph N/A   Clear
3:55 PM 60.8 °F - 15.3 °F 17% 30.08 in 10.0 mi NNE 12.7 mph 21.9 mph N/A   Clear
4:15 PM 61.7 °F - 11.5 °F 14% 30.08 in 10.0 mi NNE 16.1 mph 19.6 mph N/A   Clear
4:35 PM 61.0 °F - 9.7 °F 13% 30.08 in 10.0 mi NNE 12.7 mph 18.4 mph N/A   Clear
4:55 PM 61.2 °F - 11.7 °F 14% 30.08 in 10.0 mi NNE 8.1 mph - N/A   Clear
5:15 PM 61.0 °F - 11.7 °F 14% 30.08 in 10.0 mi NE 10.4 mph - N/A   Clear
5:35 PM 60.8 °F - 13.6 °F 16% 30.08 in 10.0 mi NNE 12.7 mph 17.3 mph N/A   Scattered Clouds
5:55 PM 60.1 °F - 13.8 °F 16% 30.08 in 10.0 mi NNE 9.2 mph - N/A   Scattered Clouds
6:15 PM 59.5 °F - 14.2 °F 17% 30.09 in 10.0 mi NNE 12.7 mph - N/A   Mostly Cloudy
6:35 PM 58.6 °F - 15.6 °F 19% 30.10 in 10.0 mi NNE 10.4 mph - N/A   Mostly Cloudy
6:55 PM 58.1 °F - 15.6 °F 19% 30.10 in 10.0 mi NNE 6.9 mph - N/A   Overcast
7:15 PM 57.2 °F - 15.8 °F 20% 30.10 in 10.0 mi NE 9.2 mph - N/A   Overcast
7:35 PM 55.6 °F - 16.0 °F 21% 30.10 in 10.0 mi NE 8.1 mph - N/A   Mostly Cloudy
7:55 PM 52.0 °F - 18.3 °F 27% 30.10 in 10.0 mi NE 6.9 mph - N/A   Scattered Clouds
8:15 PM 48.0 °F - 19.0 °F 32% 30.10 in 10.0 mi NE 5.8 mph - N/A   Mostly Cloudy
8:35 PM 47.3 °F - 20.1 °F 34% 30.11 in 10.0 mi NE 4.6 mph - N/A   Overcast
8:55 PM 48.0 °F - 22.1 °F 36% 30.11 in 10.0 mi NE 5.8 mph - N/A   Overcast
9:15 PM 45.5 °F 43.2 °F 22.8 °F 41% 30.12 in 10.0 mi ENE 4.6 mph - N/A   Overcast
9:35 PM 43.5 °F 38.9 °F 22.1 °F 43% 30.12 in 10.0 mi ENE 8.1 mph - N/A   Mostly Cloudy
9:55 PM 43.7 °F 39.7 °F 23.4 °F 45% 30.13 in 10.0 mi ENE 6.9 mph - N/A   Scattered Clouds
10:15 PM 41.4 °F 38.4 °F 23.7 °F 50% 30.13 in 10.0 mi NNE 4.6 mph - N/A   Scattered Clouds
10:35 PM 39.2 °F 35.9 °F 23.9 °F 54% 30.13 in 10.0 mi North 4.6 mph - N/A   Mostly Cloudy
10:55 PM 38.3 °F 32.5 °F 23.9 °F 56% 30.14 in 10.0 mi NE 8.1 mph - N/A   Scattered Clouds
11:15 PM 38.7 °F 34.3 °F 25.7 °F 60% 30.15 in 10.0 mi NE 5.8 mph - N/A   Clear
11:35 PM 37.8 °F 34.2 °F 26.2 °F 63% 30.15 in 10.0 mi NNE 4.6 mph - N/A   Clear
11:55 PM 36.0 °F 31.1 °F 26.1 °F 67% 30.15 in 10.0 mi NE 5.8 mph - N/A   Clear